When you browse on this site, cookies collect data to enhance your experience and personalize the content and advertising you see.
Visit our Privacy Policy to learn more. By continuing to use the site, you agree to this use of cookies and data.
  • In Belgien
  • Länderverzeichnis
  • Für 7 Tage
  • Wassertemperatur
  • Satellitenkarten
  • Wetterkarte
  • Widgets
  • user-avatar
    Anmelden

    Stündliche Wetter Molepolole

    Heute, 22 Februar, Freitag

    Zeit Temperatur Niederschläge Wind Luftdruck Luftfeuchtigkeit
    00:00 +27°C° 0 mm 2 m/S 666 mmHg 31%
    01:00 +26°C° 0 mm 3 m/S 666 mmHg 35%
    02:00 +28°C° 0 mm 4 m/S 667 mmHg 34%
    03:00 +27°C° 0 mm 4 m/S 667 mmHg 38%
    04:00 +26°C° 0 mm 5 m/S 667 mmHg 42%
    05:00 +25°C° 0 mm 5 m/S 667 mmHg 46%
    06:00 +25°C° 0 mm 5 m/S 667 mmHg 47%
    07:00 +25°C° 0 mm 5 m/S 668 mmHg 49%
    08:00 +25°C° 0 mm 5 m/S 668 mmHg 51%
    09:00 +27°C° 0 mm 5 m/S 668 mmHg 46%
    10:00 +29°C° 0 mm 4 m/S 669 mmHg 42%
    11:00 +30°C° 0 mm 4 m/S 669 mmHg 37%
    12:00 +33°C° 0 mm 3 m/S 668 mmHg 34%
    13:00 +34°C° 0 mm 3 m/S 668 mmHg 31%
    14:00 +35°C° 0 mm 3 m/S 667 mmHg 27%
    15:00 +35°C° 0 mm 2 m/S 667 mmHg 26%
    16:00 +35°C° 0 mm 1 m/S 667 mmHg 24%
    17:00 +35°C° 0 mm 1 m/S 666 mmHg 23%
    18:00 +33°C° 0 mm 1 m/S 666 mmHg 26%
    19:00 +31°C° 0 mm 1 m/S 665 mmHg 29%
    20:00 +29°C° 0 mm 1 m/S 665 mmHg 32%
    21:00 +29°C° 0 mm 1 m/S 665 mmHg 33%
    22:00 +28°C° 0 mm 1 m/S 665 mmHg 34%
    23:00 +27°C° 0 mm 1 m/S 665 mmHg 35%

    Morgen, 23 Februar, Samstag

    Zeit Temperatur Niederschläge Wind Luftdruck Luftfeuchtigkeit
    00:00 +27°C° 0 mm 2 m/S 665 mmHg 39%
    01:00 +26°C° 0 mm 3 m/S 664 mmHg 43%
    02:00 +25°C° 0 mm 3 m/S 664 mmHg 48%
    03:00 +24°C° 0 mm 3 m/S 664 mmHg 53%
    04:00 +24°C° 0 mm 3 m/S 664 mmHg 59%
    05:00 +23°C° 0 mm 2 m/S 664 mmHg 64%
    06:00 +24°C° 0 mm 3 m/S 664 mmHg 62%
    07:00 +24°C° 0 mm 3 m/S 665 mmHg 60%
    08:00 +25°C° 0 mm 3 m/S 666 mmHg 58%
    09:00 +27°C° 0 mm 4 m/S 666 mmHg 51%
    10:00 +30°C° 0 mm 4 m/S 666 mmHg 43%
    11:00 +33°C° 0 mm 4 m/S 667 mmHg 36%
    12:00 +34°C° 0 mm 4 m/S 666 mmHg 32%
    13:00 +36°C° 0 mm 4 m/S 665 mmHg 27%
    14:00 +37°C° 0 mm 5 m/S 665 mmHg 23%
    15:00 +37°C° 0 mm 4 m/S 664 mmHg 22%
    16:00 +38°C° 0 mm 4 m/S 664 mmHg 21%
    17:00 +38°C° 0 mm 3 m/S 663 mmHg 19%
    18:00 +36°C° 0 mm 3 m/S 663 mmHg 21%
    19:00 +34°C° 0 mm 3 m/S 663 mmHg 23%
    20:00 +32°C° 0 mm 2 m/S 662 mmHg 25%
    21:00 +31°C° 0 mm 3 m/S 662 mmHg 27%
    22:00 +31°C° 0 mm 3 m/S 663 mmHg 28%
    23:00 +30°C° 0 mm 3 m/S 663 mmHg 30%

    übermorgen, 24 Februar, Sonntag

    Zeit Temperatur Niederschläge Wind Luftdruck Luftfeuchtigkeit
    00:00 +29°C° 0 mm 3 m/S 663 mmHg 30%
    01:00 +29°C° 0 mm 3 m/S 662 mmHg 31%
    02:00 +28°C° 0 mm 3 m/S 662 mmHg 32%
    03:00 +27°C° 0 mm 3 m/S 662 mmHg 32%
    04:00 +26°C° 0 mm 3 m/S 662 mmHg 31%
    05:00 +25°C° 0 mm 2 m/S 661 mmHg 31%
    06:00 +26°C° 0 mm 2 m/S 662 mmHg 28%
    07:00 +28°C° 0 mm 2 m/S 663 mmHg 25%
    08:00 +29°C° 0 mm 2 m/S 663 mmHg 22%
    09:00 +31°C° 0 mm 2 m/S 664 mmHg 18%
    10:00 +34°C° 0 mm 2 m/S 664 mmHg 13%
    11:00 +37°C° 0 mm 2 m/S 665 mmHg 9%
    12:00 +38°C° 0 mm 3 m/S 664 mmHg 9%
    13:00 +39°C° 0 mm 3 m/S 664 mmHg 9%
    14:00 +41°C° 0 mm 4 m/S 663 mmHg 9%
    15:00 +40°C° 0 mm 4 m/S 663 mmHg 9%
    16:00 +40°C° 0 mm 5 m/S 662 mmHg 10%
    17:00 +40°C° 0 mm 5 m/S 662 mmHg 10%
    18:00 +36°C° 0 mm 4 m/S 662 mmHg 12%
    19:00 +33°C° 0 mm 3 m/S 662 mmHg 14%
    20:00 +30°C° 0 mm 2 m/S 661 mmHg 17%
    21:00 +29°C° 0 mm 2 m/S 662 mmHg 16%
    22:00 +28°C° 0 mm 3 m/S 662 mmHg 16%
    23:00 +28°C° 0 mm 3 m/S 662 mmHg 16%

    25 Februar, Montag

    Zeit Temperatur Niederschläge Wind Luftdruck Luftfeuchtigkeit
    00:00 +27°C° 0 mm 4 m/S 662 mmHg 16%
    01:00 +27°C° 0 mm 4 m/S 662 mmHg 15%
    02:00 +26°C° 0 mm 4 m/S 661 mmHg 14%
    03:00 +25°C° 0 mm 4 m/S 661 mmHg 16%
    04:00 +25°C° 0 mm 4 m/S 661 mmHg 18%
    05:00 +23°C° 0 mm 4 m/S 661 mmHg 20%
    06:00 +25°C° 0 mm 3 m/S 662 mmHg 22%
    07:00 +26°C° 0 mm 2 m/S 662 mmHg 23%
    08:00 +27°C° 0 mm 2 m/S 663 mmHg 25%
    09:00 +29°C° 0 mm 1 m/S 664 mmHg 22%
    10:00 +32°C° 0 mm 1 m/S 664 mmHg 20%
    11:00 +33°C° 0 mm 0 m/S 665 mmHg 17%
    12:00 +36°C° 0 mm 1 m/S 664 mmHg 16%
    13:00 +38°C° 0 mm 2 m/S 664 mmHg 15%
    14:00 +38°C° 0 mm 3 m/S 663 mmHg 13%
    15:00 +38°C° 0 mm 3 m/S 663 mmHg 13%
    16:00 +38°C° 0 mm 4 m/S 662 mmHg 13%
    17:00 +38°C° 0 mm 4 m/S 662 mmHg 13%
    18:00 +36°C° 0 mm 4 m/S 662 mmHg 14%
    19:00 +33°C° 0 mm 3 m/S 662 mmHg 15%
    20:00 +30°C° 0 mm 3 m/S 662 mmHg 16%
    21:00 +29°C° 0 mm 3 m/S 662 mmHg 14%
    22:00 +28°C° 0 mm 3 m/S 662 mmHg 13%
    23:00 +27°C° 0 mm 4 m/S 662 mmHg 12%

    26 Februar, Dienstag

    Zeit Temperatur Niederschläge Wind Luftdruck Luftfeuchtigkeit
    00:00 +27°C° 0 mm 3 m/S 662 mmHg 12%
    01:00 +26°C° 0 mm 3 m/S 662 mmHg 13%
    02:00 +25°C° 0 mm 3 m/S 662 mmHg 14%
    03:00 +24°C° 0 mm 3 m/S 662 mmHg 19%
    04:00 +24°C° 0 mm 3 m/S 662 mmHg 24%
    05:00 +23°C° 0 mm 2 m/S 661 mmHg 29%
    06:00 +24°C° 0 mm 3 m/S 662 mmHg 40%
    07:00 +25°C° 0 mm 3 m/S 663 mmHg 52%
    08:00 +26°C° 0 mm 4 m/S 664 mmHg 64%
    09:00 +28°C° 0 mm 3 m/S 664 mmHg 51%
    10:00 +31°C° 0 mm 2 m/S 664 mmHg 38%
    11:00 +34°C° 0 mm 2 m/S 665 mmHg 26%
    12:00 +35°C° 0 mm 3 m/S 664 mmHg 22%
    13:00 +37°C° 0 mm 3 m/S 663 mmHg 19%
    14:00 +38°C° 0 mm 4 m/S 663 mmHg 16%
    15:00 +38°C° 0 mm 4 m/S 662 mmHg 14%
    16:00 +39°C° 0 mm 5 m/S 662 mmHg 12%
    17:00 +37°C° 0 mm 5 m/S 662 mmHg 11%
    18:00 +35°C° 0 mm 4 m/S 661 mmHg 13%
    19:00 +33°C° 0 mm 3 m/S 661 mmHg 15%
    20:00 +29°C° 0 mm 2 m/S 661 mmHg 17%
    21:00 +28°C° 0 mm 3 m/S 661 mmHg 18%
    22:00 +28°C° 0 mm 3 m/S 661 mmHg 18%
    23:00 +27°C° 0 mm 4 m/S 662 mmHg 19%

    27 Februar, Mittwoch

    Zeit Temperatur Niederschläge Wind Luftdruck Luftfeuchtigkeit
    00:00 +26°C° 0 mm 3 m/S 661 mmHg 20%
    01:00 +26°C° 0 mm 3 m/S 661 mmHg 21%
    02:00 +25°C° 0 mm 3 m/S 661 mmHg 22%
    03:00 +24°C° 0 mm 3 m/S 661 mmHg 23%
    04:00 +23°C° 0 mm 2 m/S 660 mmHg 25%
    05:00 +23°C° 0 mm 1 m/S 660 mmHg 27%
    06:00 +24°C° 0 mm 1 m/S 661 mmHg 25%
    07:00 +26°C° 0 mm 1 m/S 662 mmHg 24%
    08:00 +27°C° 0 mm 2 m/S 663 mmHg 23%
    09:00 +29°C° 0 mm 1 m/S 663 mmHg 20%
    10:00 +32°C° 0 mm 1 m/S 664 mmHg 18%
    11:00 +34°C° 0 mm 1 m/S 665 mmHg 15%
    12:00 +36°C° 0 mm 2 m/S 664 mmHg 15%
    13:00 +37°C° 0 mm 3 m/S 664 mmHg 14%
    14:00 +38°C° 0 mm 4 m/S 663 mmHg 14%
    15:00 +37°C° 0 mm 5 m/S 663 mmHg 14%
    16:00 +37°C° 0 mm 5 m/S 663 mmHg 14%
    17:00 +37°C° 0 mm 5 m/S 663 mmHg 14%
    18:00 +35°C° 0 mm 4 m/S 663 mmHg 16%
    19:00 +31°C° 0 mm 3 m/S 663 mmHg 19%
    20:00 +29°C° 0 mm 2 m/S 663 mmHg 21%
    21:00 +28°C° 0 mm 3 m/S 663 mmHg 22%
    22:00 +27°C° 0 mm 3 m/S 663 mmHg 23%
    23:00 +26°C° 0 mm 3 m/S 663 mmHg 23%
    Mehr zeigen